Regional Weather Roundup
Issued by NWS

Home | Current Version | Previous Version | Text Only | Print | Product List | Glossary Off
Versions: 1 2 3 4 5 6 7 8 9 10 11 12 13 14 15 16 17 18 19 20 21 22 23 24 25 26 27 28 29 30 31 32 33 34 35 36 37 38 39 40 41 42 43 44 45 46 47 48 49 50

000
ASUS43 KMPX 151410
RWRMN
WEATHER ROUNDUP FOR MINNESOTA
NATIONAL WEATHER SERVICE TWIN CITIES/CHANHASSEN MN
900 AM CDT MON SEP 15 2014


NOTE: "FAIR" INDICATES FEW OR NO CLOUDS BELOW 12,000 FEET WITH NO
SIGNIFICANT WEATHER AND/OR OBSTRUCTIONS TO VISIBILITY. N/A MEANS
CURRENT SKY AND/OR WEATHER CONDITIONS ARE NOT AVAILABLE.

MNZ060>063-068>070-151500-
   Twin Cities Metro

CITY           SKY/WX    TMP DP  RH WIND       PRES   REMARKS
TWIN CITIES    CLOUDY    51  48  89 NW5       30.20S
ST PAUL        CLOUDY    52  48  86 NW6       30.21S
CRYSTAL        CLOUDY    52  47  83 W3        30.19S
BLAINE         PTSUNNY   52  50  93 CALM      30.19F
LAKEVILLE      CLOUDY    48  48 100 NW3       30.20S
EDEN PRAIRIE   CLOUDY    52  49  89 CALM      30.19S
SOUTH ST PAUL  CLOUDY    52  49  89 CALM      30.19S
LAKE ELMO      FAIR      50  48  93 NW3       30.20S
$$
MNZ001>005-007-008-013>017-022>024-027-028-151500-
   Northwest Minnesota

CITY           SKY/WX    TMP DP  RH WIND       PRES   REMARKS
BEMIDJI        MOSUNNY   46  39  77 W5        30.21S
HALLOCK        MOSUNNY   41  39  93 S5        30.19S
ROSEAU         SUNNY     45  39  81 SW3       30.18S
WARROAD        SUNNY     45  39  81 SW7       30.18S
THIEF RVR FALL CLOUDY    45  39  81 SW3       30.22R
CROOKSTON      PTSUNNY   45  43  93 SW5       30.24S
FOSSTON        SUNNY     46  45  93 CALM      30.23S
DETROIT LAKES  MOSUNNY   46  41  81 N6        30.24S
MOORHEAD       SUNNY     48  46  93 CALM      30.26R
PARK RAPIDS    CLOUDY    46  41  82 N5        30.22R
MAHNOMEN       FAIR      46  41  81 CALM      30.24R
$$
MNZ006-009>011-018-025>026-151500-
   North Central Minnesota

CITY           SKY/WX    TMP DP  RH WIND       PRES   REMARKS
BAUDETTE       SUNNY     45  38  76 VRB3      30.19R
FLAG ISLAND    CLOUDY    46  37  71 W12       30.13S
INTL FALLS     SUNNY     46  42  86 W5        30.17R
WASKISH        PTSUNNY   48  41  76 CALM      30.20R
BIG FORK       MOSUNNY   45  41  87 W3        30.20R
LONGVILLE      CLOUDY    46  46 100 CALM      30.21R
GRAND RAPIDS   PTSUNNY   46  39  76 NW9       30.20R
CRANE LAKE     CLOUDY    43  41  93 CALM      30.18R
ORR            SUNNY     45  39  81 W5        30.15R
COOK           SUNNY     43  43 100 W6        30.18R
WALKER         CLOUDY    44  40  86 CALM      30.22S
$$
MNZ012-019>021-037-151500-
   Northeast Minnesota

CITY           SKY/WX    TMP DP  RH WIND       PRES   REMARKS
DULUTH         MOSUNNY   48  42  80 NW9       30.17R
ELY            CLOUDY    45  43  93 W7        30.15R
HIBBING        SUNNY     47  40  76 NW9       30.19R
EVELETH        MOSUNNY   45  41  87 W6        30.18R
DULUTH HARBOR  MOSUNNY   48  45  87 SW5       30.19S
TWO HARBORS    SUNNY     46  39  76 NW7       30.14R
SILVER BAY     SUNNY     48  43  81 CALM      30.13R
GRAND MARAIS     N/A     52  45  77 SW8       30.11S
G MARAIS ARPRT MOSUNNY   48  39  71 NW5       30.11R
$$
MNZ029>031-032-039>041-046>048-054>057-064-151500-
   West Central Minnesota

CITY           SKY/WX    TMP DP  RH WIND       PRES   REMARKS
FERGUS FALLS   CLOUDY    46  43  87 NW7       30.25R
WHEATON        MOSUNNY   48  43  81 NW6       30.27R
MORRIS         MOSUNNY   48  45  87 NW6       30.23R
ALEXANDRIA     MOSUNNY   51  45  79 N5        30.23S
ELBOW LAKE     PTSUNNY   46  43  91 W3        30.24R
WADENA         CLOUDY    46  45  93 CALM      30.22R
GLENWOOD       MOSUNNY   50  46  87 NW3       30.23S
APPLETON       SUNNY     52  46  82 NW7       30.24R
BENSON         SUNNY     48  46  93 N6        30.23S
ORTONVILLE     CLOUDY    48  43  81 NW6       30.24S
MADISON        SUNNY     52  48  87 NW7       30.24S
WILLMAR        FAIR      50  46  87 NW5       30.24R
$$
MNZ033>034-036-042>043-049>051-058-059-151500-
   Central Minnesota

CITY           SKY/WX    TMP DP  RH WIND       PRES   REMARKS
ST CLOUD       MOSUNNY   52  44  74 N6        30.21S
SAUK CENTRE    FAIR      49  44  82 NW7       30.22S
PAYNESVILLE    MOSUNNY   47  43  84 NW6       30.22S
AITKIN         PTSUNNY   52  45  76 NW3       30.19S
PINE RIVER     CLOUDY    45  43  93 CALM      30.25R
BRAINERD       MOSUNNY   47  43  86 NW7       30.22R
STAPLES        CLOUDY    46  41  81 NW3       30.22R
LONG PRAIRIE   CLOUDY    46  43  87 CALM      30.22S
LITTLE FALLS   CLOUDY    45  43  93 CALM      30.21S
LITCHFIELD       N/A     52  48  87 N5        30.22R
BUFFALO        PTSUNNY   50  45  83 NW6       30.21S
MAPLE LAKE     PTSUNNY   51  48  90 N6        30.21S
$$
MNZ037-044-045-052-053-151500-
   East Central Minnesota

CITY           SKY/WX    TMP DP  RH WIND       PRES   REMARKS
PRINCETON      PTSUNNY   50  46  87 CALM      30.20S
MORA           MOSUNNY   46  45  93 NW5       30.21F
CAMBRIDGE      PTSUNNY   52  43  71 N3        30.18S
RUSH CITY      PTSUNNY   48  46  93 CALM      30.20S
MOOSE LAKE     MOSUNNY   46  43  87 N5        30.18R
HINCKLEY       FAIR      50  46  87 N3        30.19S
CLOQUET        MOSUNNY   46  43  87 NW7       30.18S
MCGREGOR       MOSUNNY   46  45  93 NW8       30.21R
$$
MNZ071>073-080-081-089-090-097-098-151500-
   Southwest Minnesota

CITY           SKY/WX    TMP DP  RH WIND       PRES   REMARKS
MONTEVIDEO     SUNNY     54  48  82 N7        30.25R
GRANITE FALLS  MOSUNNY   50  48  93 NW7       30.25R
CANBY          MOSUNNY   50  46  86 NW8       30.26R
MARSHALL       MOSUNNY   50  45  81 NW8       30.23R
REDWOOD FALLS  PTSUNNY   50  48  93 NW5       30.22S
OLIVIA         PTSUNNY   50  46  87 NW5       30.22R
PIPESTONE      CLOUDY    48  45  87 N5        30.23S
WINDOM         CLOUDY    48  46  93 NW9       30.22S
WORTHINGTON    CLOUDY    48  46  93 N10       30.23R
JACKSON        CLOUDY    50  46  87 N5        30.22R
TRACY          CLOUDY    49  47  93 CALM      30.23S
SLAYTON        CLOUDY    47  46  95 CALM      30.24R
$$
MNZ065>067-074>077-082>085-091>093-151500-
   South Central Minnesota

CITY           SKY/WX    TMP DP  RH WIND       PRES   REMARKS
MANKATO        CLOUDY    50  45  81 NW8       30.21S
NEW ULM        CLOUDY    50  50 100 CALM      30.21S
ST JAMES       CLOUDY    52  48  87 NW6       30.23R
FAIRMONT       CLOUDY    48  45  87 N6        30.21S
GLENCOE        CLOUDY    51  47  86 CALM      30.20S
FARIBAULT      CLOUDY    52  48  87 CALM      30.20S
OWATONNA       LGT RAIN  52  48  87 NW3       30.20S
WASECA         LGT RAIN  48  45  87 CALM      30.22R
ALBERT LEA     LGT RAIN  50  48  93 N6        30.20R
$$
MNZ078>079-086>088-094>096-151500-
   Southeast Minnesota

CITY           SKY/WX    TMP DP  RH WIND       PRES   REMARKS
ROCHESTER      LGT RAIN  49  46  90 N9        30.19R
RED WING       LGT RAIN  50  48  93 W3        30.19R
STANTON        RAIN      51  49  91 CALM      30.19S
DODGE CENTER   LGT RAIN  48  46  93 N5        30.19F
WINONA         RAIN      52  50  93 NW6       30.20R
AUSTIN         LGT RAIN  48  46  93 N5        30.19R
PRESTON        LGT RAIN  48  48 100 N8        30.18R
$$
ABBREVIATIONS USED IN REMARKS
   TC - TEMPERATURES IN CELSIUS
  WCI - WIND CHILL INDEX
   HX - HEAT INDEX
  VSB - VISIBILITY
$$



USA.gov is the U.S. government's official web portal to all federal, state and local government web resources and services.